Temperature
17 16 16 16 16 15 15 15 15 15 15 14 14 14 14 14 14 14 14 14 14 14 14 14 14 14 14 13 13 13 13 13 13 13 13 13 13 13 13 13 13 13 13
17 16 16 15 15 15 15 15 15 14 14 14 14 14 14 14 14 14 14 13 13 13 13 13 13 13 13 13 13 13 13 13 13 13 13 14 13 13 13 13 12 12 12
17 16 16 15 15 15 15 15 15 14 14 14 14 14 14 13 13 13 13 13 13 13 13 13 13 13 13 13 13 13 13 12 12 13 13 14 14 13 13 12 12 12 12
16 16 15 15 15 15 15 14 14 14 14 14 14 14 13 13 13 13 13 13 13 13 13 13 12 12 12 12 12 12 12 12 12 12 12 12 12 13 13 12 12 12 11
16 16 15 15 15 15 14 14 14 14 14 14 13 13 13 13 13 13 13 12 12 12 12 12 12 12 12 12 12 12 12 12 12 12 12 12 12 12 12 12 12 11 11
16 15 15 15 14 14 14 14 14 14 13 13 13 13 13 13 13 12 12 12 12 12 12 12 11 11 11 11 12 11 11 11 11 11 11 11 11 11 11 12 11 11 11
15 15 15 14 14 14 14 14 14 13 13 13 13 13 12 12 12 12 12 12 11 11 11 11 11 11 11 11 11 11 11 11 11 11 11 11 11 11 11 11 11 11 11
15 15 14 14 14 14 14 14 13 13 13 13 13 12 12 12 12 12 12 11 11 11 11 11 11 11 10 10 10 10 10 10 10 10 10 10 10 10 10 10 10 11 11
15 15 14 14 14 14 13 13 13 13 13 12 12 12 12 12 12 11 11 11 11 11 10 10 10 10 10 10 10 10 10 10 10 10 10 10 10 10 10 10 10 10 11
15 14 14 14 14 13 13 13 13 13 12 12 12 12 12 11 11 11 11 11 10 10 10 10 10 10 10 10 10 9 9 9 9 9 9 9 9 9 9 9 9 10 10
15 14 14 13 13 13 13 12 12 12 12 12 12 11 11 11 11 11 11 10 10 10 10 10 9 9 9 9 9 9 9 9 9 9 9 9 9 9 9 9 9 9 9
14 14 14 13 13 13 12 12 12 12 12 12 11 11 11 11 11 10 10 10 10 10 10 9 9 9 9 9 9 9 9 8 8 8 8 8 8 8 8 9 9 9 9
14 14 13 13 13 12 12 12 12 12 12 11 11 11 11 11 11 10 10 10 10 10 9 9 9 9 9 9 8 8 8 8 8 8 8 8 8 8 8 8 8 8 8
14 13 13 13 12 12 12 12 11 11 11 11 11 11 11 10 10 10 10 10 10 10 9 9 9 9 9 9 8 8 8 8 8 8 7 7 7 7 7 8 8 8 8
13 13 12 12 12 12 12 11 11 11 11 11 11 11 10 10 10 10 10 10 9 9 9 9 9 9 8 8 8 8 8 7 7 7 7 7 7 7 7 7 7 7 7
13 12 12 12 12 12 11 11 11 11 11 10 10 10 10 10 10 10 10 9 9 9 9 9 9 8 8 8 8 8 7 7 7 7 7 7 7 7 7 7 7 7 7
12 12 12 11 11 11 11 11 11 10 10 10 10 10 10 10 10 10 10 9 9 9 9 9 8 8 8 8 8 8 7 7 7 7 7 7 7 7 6 7 6 6 7
12 11 11 11 11 11 11 11 10 10 10 10 10 10 10 10 10 9 9 9 9 9 8 8 8 8 8 8 8 8 7 7 7 7 7 6 6 7 6 6 6 6 6
11 11 11 10 10 10 10 10 10 10 10 10 9 9 9 9 9 9 9 9 8 8 8 8 8 8 8 8 7 7 7 7 7 6 6 6 6 6 6 6 5 5 6
11 11 10 10 10 10 10 10 9 9 9 9 9 9 9 9 9 9 9 9 8 8 8 8 8 7 7 7 7 7 7 6 6 6 6 6 6 6 6 5 5 5 5
10 10 10 10 10 10 9 9 9 9 9 9 9 9 9 9 9 9 8 8 8 8 7 7 7 7 7 7 7 7 6 6 6 6 6 6 6 6 6 5 5 5 5
10 10 10 9 9 9 9 9 9 9 9 9 9 9 9 9 8 8 8 8 8 7 7 7 7 7 6 6 7 6 6 6 6 5 5 5 5 5 5 5 5 5 5
9 9 9 9 9 9 9 8 8 8 8 8 8 8 8 8 8 8 8 8 7 7 7 6 6 6 6 6 6 6 6 6 5 5 5 5 5 5 5 5 5 4 4
9 9 9 8 8 8 8 8 8 8 8 8 8 8 8 8 8 8 7 7 7 6 6 6 6 6 6 5 5 5 5 5 5 5 5 5 5 5 4 4 4 4 4
8 8 8 8 8 8 8 8 8 8 7 7 7 7 7 7 7 7 7 7 7 6 6 6 6 5 5 5 5 5 5 5 5 4 4 4 4 4 4 4 4 4 4
8 8 8 8 8 8 7 7 7 7 7 7 7 7 7 7 6 6 6 6 6 6 6 5 5 5 5 5 5 5 5 5 4 4 4 4 4 4 4 3 3 3 3
Wind_Speed
4 4 4 4 4 4 4 4 4 4 4 3 3 2 2 2 2 3 4 4 4 4 3 2 3 2 3 3 3 2 2 2 1 1 1 2 2 3 3 3 3 5 5
5 5 4 5 4 4 4 4 4 4 4 3 2 2 2 2 2 2 3 4 4 4 3 2 2 2 2 2 3 2 1 1 1 1 1 1 2 2 2 2 3 3 4
6 6 5 5 5 4 4 3 4 4 3 4 3 3 3 2 2 2 2 3 3 4 3 3 2 2 2 1 2 2 1 0 0 1 2 1 1 0 1 2 2 3 3
6 6 6 6 6 5 5 4 4 4 4 4 3 4 3 2 2 1 2 2 3 3 3 3 3 2 2 2 1 2 1 1 1 0 1 1 1 1 1 1 1 2 2
7 6 6 6 5 5 5 4 4 4 4 4 4 4 3 2 2 2 2 2 2 3 3 3 3 2 2 2 2 2 2 1 1 1 0 1 1 2 2 1 1 1 1
6 5 5 5 5 5 5 5 4 4 4 4 4 4 3 3 3 2 2 1 1 1 2 2 2 2 2 2 2 2 2 1 1 1 1 0 1 1 1 2 2 1 1
5 5 5 5 5 5 5 5 5 5 5 4 4 4 4 3 3 2 2 1 1 1 1 1 1 2 2 2 2 2 2 1 1 1 1 1 1 1 2 2 2 2 1
6 5 5 5 5 5 6 6 6 5 5 4 4 5 4 3 3 3 2 2 1 1 1 0 1 1 1 1 2 1 2 2 2 2 2 1 1 1 2 2 3 3 2
6 5 5 4 4 4 5 6 6 6 5 5 4 4 4 4 3 3 3 2 2 1 1 1 1 0 0 1 1 1 2 2 2 2 2 2 1 2 2 2 3 3 4
5 5 5 4 4 4 4 5 6 6 5 5 4 4 4 4 4 3 3 2 2 2 2 2 2 1 1 0 1 1 1 2 2 2 2 2 2 1 2 2 2 3 4
5 5 5 4 4 4 4 4 5 5 5 4 4 5 5 5 4 3 3 3 3 3 3 3 2 2 1 1 1 1 1 2 2 2 2 2 2 2 2 2 2 2 3
4 4 4 4 4 4 4 4 4 5 5 4 4 5 5 5 5 4 3 3 3 3 3 3 3 2 2 2 2 2 2 2 2 2 3 3 2 3 2 2 2 2 3
4 4 4 4 4 4 4 4 4 4 4 4 4 5 5 5 5 4 4 4 4 3 4 4 4 3 3 2 2 3 3 3 3 3 3 3 3 3 2 3 3 2 2
3 3 4 4 4 4 5 4 4 4 4 4 4 5 5 4 4 4 4 4 4 4 4 4 4 4 3 3 3 3 3 3 3 3 4 4 4 4 4 3 3 3 3
3 3 3 3 4 4 4 5 4 4 4 4 4 5 4 4 4 4 4 4 4 4 4 4 4 3 3 3 3 3 4 4 4 4 4 3 3 4 4 3 4 3 3
3 3 3 3 3 4 4 5 5 5 5 5 4 4 4 4 4 4 4 4 4 4 4 4 4 4 3 1 2 4 4 4 4 4 4 3 3 3 3 4 5 5 5
3 3 3 3 3 3 4 4 5 5 5 5 4 5 5 4 4 4 4 4 4 4 4 4 4 4 3 3 3 4 5 4 4 4 4 3 3 4 4 4 5 4 5
4 3 3 3 3 3 3 3 4 5 5 5 5 5 5 5 4 4 4 4 4 4 4 4 4 4 3 3 4 4 6 5 5 5 4 4 4 3 4 4 4 4 4
4 3 3 3 3 2 2 3 3 4 5 5 5 5 5 5 5 5 4 4 4 4 5 4 4 4 4 4 4 5 4 4 5 4 4 4 4 2 5 5 5 5 4
3 3 3 3 3 2 3 3 4 4 4 4 4 5 5 5 5 5 4 4 4 5 4 4 4 5 4 4 4 5 4 4 4 4 4 3 4 3 5 6 5 5 4
3 2 3 3 3 3 3 4 4 4 4 3 3 3 4 4 4 4 4 4 4 4 5 5 4 4 4 4 4 5 4 4 4 3 3 3 2 3 5 6 4 4 5
2 2 2 3 2 3 3 4 4 3 3 3 3 3 3 3 3 4 4 4 4 4 4 4 3 3 3 2 3 3 4 4 4 4 3 2 3 4 4 4 3 4 5
2 2 2 2 2 3 3 4 3 2 3 3 3 3 3 3 3 3 3 3 4 3 3 3 3 3 2 2 2 3 3 4 4 3 3 2 2 4 4 3 3 4 4
3 2 2 2 2 3 3 3 3 3 3 3 3 3 3 3 2 2 3 3 3 3 3 3 3 3 2 2 2 2 3 3 3 2 1 1 2 3 2 3 3 3 3
2 2 3 3 3 2 3 2 2 3 3 3 3 3 3 3 3 2 2 3 2 2 3 3 3 3 3 2 2 2 2 2 2 2 2 1 2 2 2 2 2 3 3
2 2 3 3 2 2 2 2 2 3 4 3 3 3 3 3 3 2 1 0 1 1 1 2 3 3 2 1 2 2 2 1 2 3 2 2 2 2 3 3 3 3 3
Wind_Direction
173 164 163 166 163 158 160 160 166 164 161 155 155 145 131 112 95 79 68 63 56 52 53 52 56 52 59 50 44 46 71 68 47 78 103 108 94 75 73 56 56 59 51
176 168 164 164 170 168 169 168 171 172 172 165 161 154 138 119 96 83 71 60 54 49 48 53 63 65 75 66 55 43 29 73 2 298 252 193 154 90 78 68 55 49 49
188 177 175 173 173 175 175 178 177 171 173 171 160 150 145 147 121 106 87 62 60 56 48 45 44 48 57 56 46 33 16 320 352 348 322 281 273 115 110 75 58 43 38
192 184 180 180 179 181 178 178 175 169 167 169 169 166 163 149 135 121 111 94 70 62 53 47 42 45 43 50 33 20 352 306 302 5 350 328 330 266 210 160 57 39 39
191 186 186 185 183 180 178 178 177 174 174 175 168 178 171 156 142 137 130 111 80 63 55 45 46 45 39 37 29 9 354 326 317 322 325 336 272 278 264 255 292 352 31
185 183 183 179 179 179 178 179 180 180 181 185 181 182 176 166 158 165 154 135 114 82 62 46 51 47 40 39 31 22 8 359 0 323 313 286 264 293 272 272 272 290 333
178 178 176 173 177 182 184 184 184 186 187 190 188 187 190 185 183 185 176 166 145 127 86 51 42 42 37 37 33 28 4 12 7 347 332 314 305 297 285 279 279 286 283
176 176 177 176 180 185 189 191 190 192 192 196 201 198 194 196 195 197 195 190 176 161 165 162 83 43 23 20 23 7 356 352 357 3 347 324 329 315 292 287 278 273 264
177 179 180 180 182 185 192 196 195 195 196 200 204 204 198 194 195 196 193 192 186 172 186 207 179 135 14 354 2 353 350 345 346 339 335 322 325 309 302 284 273 278 275
185 185 184 186 191 190 189 195 200 200 198 199 196 198 196 190 194 192 190 189 189 182 190 206 206 192 198 255 306 314 327 319 335 327 323 323 313 322 306 283 278 281 278
194 191 189 190 192 188 188 192 198 199 196 197 195 196 195 189 190 193 195 198 196 192 199 208 215 214 215 222 238 271 291 296 304 305 305 303 314 302 292 287 277 268 266
194 193 190 191 191 190 192 191 195 198 197 197 196 199 197 189 192 194 198 200 202 203 208 210 215 214 224 238 249 264 267 276 285 287 288 287 283 279 282 282 274 270 267
194 194 195 198 198 198 198 195 196 198 194 192 192 195 199 195 197 196 198 203 205 207 210 212 216 221 227 238 249 256 260 264 272 279 280 282 274 270 267 268 270 266 264
199 201 206 207 208 206 201 202 200 197 195 190 188 189 194 195 197 198 202 206 208 211 214 216 219 223 226 232 243 248 255 263 271 277 280 280 277 277 272 265 264 261 255
216 218 216 216 212 211 209 208 204 198 196 195 193 191 192 194 194 199 206 207 209 216 216 217 221 227 230 234 242 251 258 258 260 262 265 275 292 316 303 287 276 264 256
235 234 231 229 224 220 216 210 210 205 201 203 201 194 194 193 194 201 204 202 209 219 221 221 221 228 233 203 266 271 254 262 260 260 257 253 250 251 254 280 294 295 272
253 252 247 239 240 236 227 219 215 206 206 206 200 199 198 196 201 202 204 206 212 219 223 222 225 233 223 188 224 271 264 258 261 258 253 255 257 253 249 238 235 252 278
260 261 262 258 253 247 239 224 216 211 209 206 208 202 203 202 205 207 211 217 220 220 226 226 227 235 225 200 214 250 254 256 258 258 255 252 248 253 260 253 250 253 255
264 257 256 256 249 240 234 217 210 213 212 212 217 208 205 205 206 207 215 222 224 225 227 227 227 230 220 203 217 242 251 250 254 257 257 255 249 239 261 253 251 252 248
273 263 256 250 237 236 225 214 212 213 217 217 219 211 206 205 207 209 215 223 227 229 228 229 230 232 230 201 219 242 246 247 251 254 255 263 274 234 256 253 254 255 256
270 261 249 242 237 229 218 218 219 225 228 222 216 207 203 206 208 213 219 220 223 226 229 230 235 237 237 203 213 246 253 250 251 253 253 244 244 239 250 267 265 274 275
267 261 244 241 235 220 218 219 224 231 221 211 206 201 198 198 200 206 216 216 213 217 225 228 230 234 225 215 207 235 276 283 253 254 255 241 207 225 241 257 286 279 271
256 259 250 245 229 215 218 219 217 213 205 202 203 197 192 196 197 200 205 207 207 214 220 223 226 235 235 216 205 221 250 270 266 271 294 277 196 219 224 221 238 244 249
256 261 251 244 243 228 224 221 203 195 195 197 197 193 189 191 193 199 201 203 208 214 219 225 230 231 233 234 231 229 233 238 254 263 235 184 201 228 239 220 227 249 259
256 257 256 247 239 229 218 215 201 197 200 199 194 187 185 187 191 194 207 213 218 229 232 235 236 230 233 245 286 267 238 239 253 255 237 229 229 236 239 244 251 256 254
262 268 273 274 265 237 217 206 202 207 204 198 197 194 190 193 195 193 196 55 225 178 228 270 266 253 261 209 210 246 247 214 206 225 225 233 234 237 249 256 258 260 263
Height
1529 1530 1531 1532 1533 1534 1535 1536 1536 1537 1538 1538 1539 1539 1540 1540 1540 1540 1540 1540 1540 1539 1539 1538 1538 1537 1537 1536 1536 1536 1535 1535 1535 1535 1535 1535 1535 1535 1534 1534 1534 1534 1533
1527 1528 1530 1530 1532 1533 1534 1535 1536 1537 1537 1538 1539 1539 1539 1539 1539 1539 1539 1539 1539 1539 1539 1538 1538 1537 1536 1536 1535 1535 1535 1534 1534 1535 1535 1535 1537 1535 1535 1534 1534 1534 1533
1525 1527 1528 1529 1530 1531 1532 1533 1534 1535 1536 1537 1538 1538 1538 1539 1539 1539 1539 1539 1539 1538 1538 1538 1537 1536 1536 1536 1535 1534 1534 1534 1534 1534 1535 1535 1534 1535 1535 1534 1534 1533 1533
1523 1525 1526 1527 1529 1530 1531 1532 1533 1534 1535 1535 1536 1537 1537 1538 1538 1538 1538 1538 1538 1538 1537 1537 1537 1536 1536 1535 1534 1534 1533 1533 1533 1533 1533 1534 1534 1535 1534 1535 1534 1533 1532
1521 1523 1524 1525 1527 1528 1529 1531 1532 1533 1533 1534 1535 1536 1537 1537 1537 1537 1537 1537 1537 1537 1536 1536 1536 1536 1535 1534 1533 1533 1532 1532 1532 1532 1532 1532 1533 1533 1534 1533 1533 1533 1532
1519 1521 1522 1524 1525 1526 1527 1529 1530 1531 1531 1532 1533 1534 1535 1535 1536 1536 1536 1536 1536 1536 1536 1535 1535 1535 1534 1533 1532 1532 1531 1531 1531 1531 1531 1531 1531 1532 1532 1532 1532 1531 1531
1517 1519 1520 1521 1523 1524 1525 1527 1528 1529 1530 1531 1532 1533 1533 1534 1534 1535 1535 1535 1535 1535 1534 1534 1534 1534 1533 1532 1532 1531 1530 1530 1530 1530 1530 1530 1530 1530 1530 1531 1530 1530 1530
1515 1517 1518 1519 1520 1522 1523 1525 1526 1527 1528 1529 1530 1531 1531 1532 1533 1533 1533 1534 1534 1533 1533 1533 1533 1532 1532 1531 1531 1530 1530 1529 1529 1529 1528 1528 1528 1528 1528 1529 1529 1529 1529
1513 1515 1517 1518 1519 1520 1521 1522 1523 1525 1526 1527 1528 1529 1529 1530 1530 1531 1531 1532 1532 1531 1532 1532 1531 1531 1530 1530 1530 1529 1529 1528 1528 1527 1527 1527 1527 1527 1526 1527 1527 1528 1527
1512 1514 1515 1516 1517 1518 1519 1520 1521 1522 1523 1524 1525 1526 1527 1527 1528 1528 1529 1529 1529 1529 1530 1530 1530 1529 1529 1529 1528 1528 1527 1527 1526 1525 1525 1525 1525 1525 1524 1525 1525 1525 1525
1510 1512 1513 1514 1515 1516 1516 1517 1518 1520 1521 1522 1522 1523 1524 1525 1525 1526 1526 1527 1527 1527 1528 1528 1528 1528 1527 1527 1527 1526 1526 1526 1525 1525 1524 1524 1523 1523 1523 1523 1522 1522 1522
1509 1510 1511 1512 1513 1514 1514 1515 1516 1517 1518 1519 1520 1521 1521 1522 1523 1523 1524 1524 1525 1525 1526 1526 1526 1526 1526 1526 1525 1525 1524 1524 1524 1523 1522 1522 1521 1521 1521 1521 1520 1520 1520
1507 1508 1509 1510 1510 1511 1512 1513 1514 1515 1515 1516 1517 1518 1519 1519 1520 1521 1521 1522 1523 1523 1523 1524 1524 1524 1524 1523 1523 1523 1522 1522 1522 1521 1520 1520 1520 1519 1519 1518 1518 1518 1517
1505 1506 1507 1507 1508 1509 1510 1510 1511 1512 1513 1514 1514 1515 1516 1517 1517 1518 1519 1519 1520 1520 1521 1521 1521 1521 1521 1521 1521 1521 1520 1520 1519 1519 1518 1518 1518 1517 1517 1516 1516 1515 1515
1504 1504 1504 1505 1506 1506 1507 1508 1509 1509 1510 1511 1512 1513 1514 1514 1515 1515 1516 1517 1517 1518 1518 1518 1519 1519 1519 1519 1518 1518 1518 1517 1517 1516 1515 1515 1514 1513 1513 1513 1513 1513 1513
1501 1502 1502 1503 1503 1504 1504 1505 1506 1506 1507 1508 1509 1510 1511 1511 1512 1512 1513 1513 1514 1515 1515 1516 1516 1516 1516 1516 1515 1515 1515 1514 1514 1513 1512 1512 1511 1510 1510 1510 1509 1510 1510
1499 1500 1500 1500 1500 1501 1501 1502 1502 1503 1504 1505 1506 1507 1508 1508 1509 1510 1510 1511 1511 1512 1512 1513 1513 1513 1513 1512 1512 1512 1512 1511 1511 1510 1509 1508 1508 1507 1507 1507 1506 1506 1506
1497 1497 1497 1497 1498 1498 1498 1499 1499 1500 1501 1502 1503 1504 1504 1505 1506 1507 1507 1508 1508 1509 1509 1509 1509 1509 1509 1509 1509 1509 1508 1508 1507 1507 1506 1505 1505 1504 1504 1504 1503 1503 1503
1495 1495 1495 1495 1495 1495 1495 1496 1496 1497 1498 1499 1499 1500 1501 1502 1503 1503 1504 1505 1505 1506 1506 1506 1506 1506 1506 1506 1505 1505 1504 1504 1504 1503 1503 1502 1502 1501 1500 1500 1500 1500 1499
1493 1492 1491 1491 1491 1491 1492 1492 1493 1494 1494 1495 1496 1497 1498 1499 1499 1500 1501 1502 1502 1502 1503 1503 1503 1503 1502 1502 1502 1501 1501 1500 1500 1499 1499 1498 1498 1497 1497 1497 1497 1496 1496
1489 1489 1488 1488 1488 1488 1488 1489 1490 1490 1491 1492 1492 1493 1494 1495 1496 1497 1497 1498 1499 1499 1499 1499 1499 1499 1499 1498 1498 1498 1497 1497 1496 1496 1495 1495 1494 1494 1493 1493 1494 1493 1493
1486 1485 1485 1484 1484 1484 1485 1485 1486 1487 1488 1488 1489 1490 1491 1492 1493 1493 1494 1495 1495 1495 1495 1496 1496 1495 1495 1495 1494 1494 1494 1493 1493 1493 1492 1491 1491 1490 1490 1490 1490 1490 1489
1483 1483 1482 1481 1481 1481 1482 1482 1482 1483 1484 1485 1486 1487 1488 1489 1489 1490 1490 1491 1491 1492 1492 1492 1492 1492 1492 1491 1491 1491 1490 1490 1490 1490 1489 1488 1488 1487 1487 1487 1487 1487 1487
1481 1480 1479 1479 1478 1478 1479 1479 1479 1480 1481 1482 1483 1483 1484 1485 1486 1486 1487 1487 1488 1488 1488 1489 1489 1489 1489 1488 1488 1487 1487 1487 1486 1486 1485 1485 1485 1484 1484 1484 1484 1484 1484
1479 1478 1477 1476 1476 1476 1476 1476 1477 1477 1478 1479 1480 1480 1481 1482 1483 1483 1484 1484 1485 1485 1485 1486 1486 1486 1485 1485 1485 1484 1484 1483 1483 1483 1482 1482 1482 1481 1481 1481 1481 1481 1480
1477 1476 1475 1474 1474 1473 1474 1474 1474 1475 1476 1476 1477 1477 1478 1479 1479 1480 1481 1481 1482 1482 1482 1483 1483 1483 1483 1482 1482 1482 1481 1481 1480 1480 1479 1479 1479 1479 1478 1478 1478 1477 1477